Total_Precipitation_Accumulation
0.24 0.26 0.29 0.27 0.26 0.27 0.30 0.41 0.57 0.40 0.11 0.03 0.05 0.08 0.11 0.15 0.21 0.27 0.27 0.32 0.37 0.41 0.48 0.54 0.55 0.55 0.66 0.96 1.65 2.46 3.06 3.10 2.73 2.16 1.78 1.81 2.00 2.37
0.26 0.30 0.32 0.32 0.31 0.31 0.32 0.35 0.46 0.56 0.34 0.07 0.06 0.09 0.13 0.15 0.21 0.25 0.24 0.30 0.34 0.37 0.38 0.41 0.47 0.53 0.58 0.69 0.94 1.58 2.30 2.86 3.02 2.80 2.41 2.19 2.23 2.51
0.31 0.35 0.34 0.35 0.39 0.39 0.39 0.39 0.39 0.46 0.44 0.12 0.05 0.08 0.15 0.21 0.21 0.22 0.23 0.24 0.27 0.34 0.37 0.35 0.37 0.42 0.48 0.55 0.66 0.97 1.59 2.21 2.74 3.00 3.01 2.76 2.59 2.54
0.42 0.42 0.41 0.42 0.43 0.44 0.48 0.47 0.42 0.40 0.45 0.27 0.08 0.07 0.13 0.22 0.26 0.25 0.24 0.22 0.23 0.28 0.33 0.36 0.36 0.37 0.41 0.47 0.54 0.65 1.00 1.52 2.07 2.55 2.82 2.76 2.62 2.71
0.48 0.52 0.52 0.52 0.51 0.50 0.54 0.55 0.51 0.44 0.43 0.39 0.20 0.12 0.16 0.22 0.28 0.28 0.28 0.27 0.26 0.29 0.30 0.35 0.40 0.42 0.41 0.42 0.46 0.52 0.62 0.87 1.28 1.89 2.45 2.63 2.55 2.51
0.52 0.56 0.60 0.65 0.66 0.66 0.70 0.68 0.64 0.58 0.48 0.41 0.31 0.23 0.23 0.25 0.31 0.32 0.30 0.30 0.34 0.34 0.33 0.33 0.37 0.42 0.43 0.39 0.35 0.38 0.50 0.74 1.03 1.38 1.89 2.27 2.35 2.31
0.54 0.57 0.61 0.69 0.83 0.96 1.05 0.96 0.80 0.72 0.61 0.53 0.42 0.33 0.30 0.34 0.41 0.40 0.39 0.33 0.38 0.44 0.40 0.34 0.32 0.31 0.35 0.42 0.45 0.44 0.45 0.53 0.71 1.00 1.40 1.84 2.13 2.15
0.49 0.47 0.48 0.54 0.62 0.72 0.84 0.82 0.75 0.81 0.82 0.71 0.59 0.51 0.43 0.41 0.48 0.53 0.54 0.50 0.45 0.45 0.45 0.43 0.40 0.39 0.37 0.36 0.45 0.47 0.49 0.52 0.57 0.72 1.02 1.37 1.74 2.02
0.34 0.34 0.34 0.38 0.44 0.43 0.50 0.49 0.49 0.55 0.68 0.76 0.77 0.68 0.60 0.53 0.59 0.63 0.67 0.65 0.52 0.51 0.54 0.60 0.59 0.53 0.49 0.49 0.54 0.48 0.48 0.51 0.57 0.64 0.74 1.01 1.35 1.70
0.28 0.31 0.31 0.33 0.38 0.46 0.49 0.43 0.38 0.39 0.50 0.61 0.77 0.81 0.76 0.74 0.81 0.87 0.87 0.82 0.74 0.70 0.67 0.74 0.78 0.73 0.68 0.63 0.59 0.51 0.47 0.45 0.47 0.57 0.68 0.82 1.02 1.33
0.24 0.31 0.32 0.29 0.35 0.42 0.42 0.38 0.31 0.32 0.36 0.47 0.57 0.66 0.71 0.78 0.89 0.96 0.94 0.95 1.03 1.10 0.98 0.90 0.92 0.87 0.86 0.83 0.75 0.64 0.53 0.46 0.42 0.46 0.58 0.72 0.90 1.12
0.16 0.24 0.38 0.38 0.35 0.32 0.30 0.31 0.32 0.31 0.25 0.23 0.24 0.30 0.39 0.51 0.69 0.91 1.03 1.05 1.11 1.26 1.23 1.07 1.07 0.99 1.01 0.98 0.80 0.66 0.57 0.55 0.48 0.44 0.48 0.59 0.76 0.95
0.17 0.22 0.32 0.34 0.26 0.22 0.20 0.25 0.34 0.27 0.19 0.16 0.15 0.18 0.25 0.37 0.54 0.77 0.96 1.07 1.09 1.16 1.17 1.10 1.14 1.08 0.97 0.98 0.87 0.73 0.61 0.53 0.44 0.43 0.46 0.52 0.65 0.76
0.20 0.19 0.25 0.25 0.17 0.13 0.10 0.12 0.13 0.10 0.07 0.07 0.09 0.12 0.19 0.32 0.45 0.62 0.81 0.93 1.02 1.06 1.03 1.01 1.04 0.96 0.85 0.78 0.83 0.83 0.72 0.63 0.50 0.40 0.37 0.50 0.62 0.72
0.23 0.29 0.20 0.12 0.07 0.04 0.03 0.04 0.03 0.03 0.04 0.05 0.08 0.11 0.17 0.26 0.33 0.42 0.57 0.73 0.82 0.88 0.93 0.93 0.99 0.96 0.86 0.75 0.70 0.73 0.77 0.80 0.67 0.52 0.43 0.40 0.44 0.55
0.12 0.18 0.15 0.05 0.02 0.01 0.01 0.01 0.01 0.02 0.05 0.06 0.08 0.08 0.10 0.14 0.22 0.33 0.44 0.59 0.70 0.80 0.88 0.94 1.06 1.14 1.04 0.84 0.73 0.71 0.69 0.78 0.77 0.62 0.50 0.44 0.43 0.43
0.12 0.08 0.07 0.04 0.02 0.01 0.00 0.00 0.00 0.01 0.02 0.03 0.05 0.07 0.08 0.11 0.18 0.26 0.38 0.49 0.63 0.74 0.85 0.99 1.10 1.19 1.29 1.22 1.02 0.87 0.74 0.67 0.69 0.65 0.55 0.50 0.52 0.50
0.07 0.04 0.05 0.05 0.03 0.02 0.01 0.01 0.01 0.01 0.02 0.03 0.05 0.06 0.09 0.12 0.16 0.21 0.29 0.41 0.54 0.63 0.74 0.91 1.03 1.11 1.31 1.56 1.44 1.08 0.83 0.73 0.73 0.70 0.60 0.52 0.57 0.61
0.03 0.02 0.02 0.03 0.03 0.03 0.02 0.02 0.02 0.01 0.02 0.03 0.04 0.06 0.07 0.10 0.13 0.18 0.25 0.33 0.44 0.54 0.66 0.79 0.92 1.01 1.10 1.36 1.60 1.35 0.99 0.82 0.78 0.80 0.75 0.58 0.53 0.59
0.02 0.02 0.03 0.03 0.03 0.03 0.03 0.03 0.02 0.02 0.02 0.02 0.03 0.04 0.06 0.09 0.12 0.15 0.21 0.31 0.38 0.46 0.55 0.69 0.85 0.99 1.02 1.02 1.16 1.33 1.30 0.99 0.79 0.81 0.87 0.79 0.72 0.77
0.03 0.03 0.04 0.04 0.04 0.04 0.03 0.03 0.03 0.03 0.02 0.02 0.03 0.04 0.05 0.08 0.10 0.13 0.18 0.24 0.32 0.40 0.48 0.58 0.75 0.89 1.03 1.01 1.01 1.11 1.26 1.33 1.05 0.81 0.78 0.79 0.85 0.90
0.04 0.05 0.04 0.05 0.05 0.04 0.04 0.03 0.03 0.02 0.02 0.02 0.02 0.03 0.04 0.07 0.10 0.12 0.16 0.21 0.28 0.36 0.45 0.52 0.60 0.75 0.99 1.13 1.16 1.12 1.16 1.32 1.43 1.25 0.98 0.76 0.70 0.77
0.07 0.07 0.06 0.06 0.06 0.05 0.05 0.04 0.04 0.03 0.02 0.03 0.03 0.03 0.04 0.06 0.08 0.11 0.14 0.19 0.24 0.30 0.38 0.46 0.55 0.69 0.95 1.13 1.21 1.19 1.13 1.14 1.20 1.26 1.35 1.16 0.84 0.70